User: anonymous
Location: Caribou
(46.8667°N, 68.0167°W)
Time: 04:25:00
(UTC-04:00)
Language:

SL-08 RB Rocket - Orbit

View from above orbital plane
View from above orbital plane
View from above satellite
View from above satellite

Ground track
Ground track

The orbit data is extracted from the following two-line orbital elements,

1 26387U 00033D   14275.14975579  .00000883  00000-0  16414-3 0  6296
2 26387 098.0961 341.6485 0026113 232.6652 185.1893 14.67400335762778
Epoch (UTC): 02 October 2014 03:35:38
Eccentricity: 0.0026113
inclination: 98.0961°
perigee height: 651 km
apogee height: 688 km
right ascension of ascending node: 341.6485°
argument of perigee: 232.6652°
revolutions per day: 14.67400335
mean anomaly at epoch: 185.1893°
orbit number at epoch: 76277

The dashed part of the orbit path shows where the satellite is in the earth's shadow,  

DLR